W8KVG Weather Reports


Display with metric or nautical units.
time (UTC)temp
F
wind
direction
speed
MPH
gust
MPH
rain 1hr
in
rain 24hr
in
rain mn
in
humidity
%
barometer
mb
20260510021852 53 50 0.0 0.0 0.00 0.13 0.13 98 1010.1
20260510021350 53 6 0.0 0.0 0.00 0.13 0.13 98 1009.7
20260510020846 54 130 0.0 2.0 0.00 0.13 0.13 98 1009.9
20260510020346 54 2 1.0 3.0 0.02 0.13 0.13 97 1009.7
20260510015842 54 178 0.0 3.0 0.05 0.13 0.13 97 1009.9
20260510015338 54 130 1.0 2.0 0.02 0.13 0.13 96 1009.5
20260510014834 54 40 0.0 5.0 0.02 0.12 0.12 94 1009.5
20260510014331 54 198 3.0 5.0 0.24 0.12 0.12 93 1009.3
20260510013827 56 6 4.0 9.0 0.02 0.09 0.09 86 1009.2
20260510013323 58 274 5.0 13.0 0.00 0.08 0.08 79 1008.9
20260510012818 61 119 1.0 7.0 0.00 0.08 0.08 75 1008.3
20260510012318 62 349 0.0 3.0 0.00 0.08 0.08 69 1007.1
20260510011813 62 129 0.0 2.0 0.00 0.08 0.08 68 1006.6
20260510011308 61 32 0.0 2.0 0.00 0.08 0.08 69 1006.4
20260510010805 62 354 1.0 4.0 0.00 0.08 0.08 68 1006.5
20260510010302 62 0 0.0 2.0 0.00 0.08 0.08 67 1006.4
20260510005759 62 315 0.0 3.0 0.00 0.08 0.08 67 1006.5
20260510005255 62 18 0.0 5.0 0.00 0.08 0.08 67 1006.8
20260510004753 62 345 2.0 3.0 0.00 0.08 0.08 66 1006.5
20260510004250 62 251 0.0 3.0 0.00 0.08 0.08 67 1006.6
20260510003748 62 353 2.0 2.0 0.00 0.08 0.08 67 1006.5
20260510003245 62 18 0.0 3.0 0.00 0.08 0.08 66 1006.6
20260510002743 62 48 0.0 3.0 0.00 0.08 0.08 66 1006.5
20260510002241 63 89 0.0 5.0 0.00 0.08 0.08 64 1006.5
20260510001738 63 2 1.0 3.0 0.00 0.08 0.08 63 1006.4
20260510001236 64 153 1.0 3.0 0.00 0.08 0.08 63 1006.2
20260510000731 64 246 0.0 3.0 0.00 0.08 0.08 62 1006.2
20260510000229 64 198 3.0 6.0 0.00 0.08 0.08 61 1006.1
20260509235725 64 350 1.0 8.0 0.00 0.08 0.08 61 1006.1
20260509235222 64 230 2.0 5.0 0.00 0.08 0.08 61 1006.0
20260509234718 65 189 2.0 12.0 0.00 0.08 0.08 61 1005.9
20260509234215 65 181 2.0 6.0 0.00 0.08 0.08 61 1006.0
20260509233713 65 187 3.0 5.0 0.00 0.08 0.08 61 1005.7
20260509233205 66 200 5.0 12.0 0.00 0.08 0.08 60 1005.8
20260509232701 66 238 2.0 9.0 0.00 0.08 0.08 59 1005.9
20260509232158 67 210 2.0 3.0 0.00 0.08 0.08 58 1005.8
20260509231655 67 203 2.0 5.0 0.00 0.08 0.08 58 1005.9
20260509231152 67 251 2.0 10.0 0.00 0.08 0.08 57 1005.7
20260509230649 68 224 0.0 5.0 0.00 0.08 0.08 57 1005.8
20260509230146 67 217 1.0 12.0 0.00 0.08 0.08 57 1006.0
20260509225642 68 305 3.0 5.0 0.00 0.08 0.08 57 1005.7
20260509225137 68 135 0.0 6.0 0.00 0.08 0.08 57 1005.9
20260509224633 68 308 2.0 9.0 0.00 0.08 0.08 56 1005.9
20260509224130 70 271 0.0 6.0 0.00 0.08 0.08 53 1005.7
20260509223626 70 215 1.0 7.0 0.00 0.08 0.08 52 1005.5
20260509223119 71 189 2.0 5.0 0.00 0.08 0.08 51 1005.3
20260509222614 71 356 0.0 5.0 0.00 0.08 0.08 53 1005.5
20260509222111 70 336 1.0 6.0 0.00 0.08 0.08 53 1005.4
20260509221606 70 295 2.0 7.0 0.00 0.08 0.08 53 1005.6
20260509221103 70 178 2.0 4.0 0.00 0.08 0.08 54 1005.6
20260509220558 69 202 6.0 10.0 0.00 0.08 0.08 54 1005.6
20260509220055 71 318 3.0 11.0 0.00 0.08 0.08 54 1005.8
20260509215550 71 195 4.0 15.0 0.00 0.08 0.08 53 1005.8
20260509215048 71 7 4.0 7.0 0.00 0.08 0.08 53 1005.8
20260509214545 71 124 2.0 8.0 0.00 0.08 0.08 52 1005.7
20260509214042 72 181 3.0 4.0 0.00 0.08 0.08 52 1005.9
20260509213538 71 216 2.0 4.0 0.00 0.08 0.08 53 1005.9
20260509213035 70 189 2.0 8.0 0.00 0.08 0.08 55 1005.9
20260509212532 68 317 1.0 3.0 0.00 0.08 0.08 58 1006.1
20260509212029 70 192 4.0 7.0 0.00 0.08 0.08 55 1005.9
20260509211524 70 196 1.0 11.0 0.00 0.08 0.08 57 1005.8
20260509211021 71 207 5.0 8.0 0.00 0.08 0.08 56 1005.8
20260509210518 70 184 3.0 9.0 0.00 0.08 0.08 56 1006.2
20260509210015 70 266 2.0 10.0 0.00 0.08 0.08 57 1006.1
20260509205509 69 74 0.0 6.0 0.00 0.08 0.08 58 1006.0
20260509205005 68 215 1.0 9.0 0.00 0.08 0.08 61 1006.3
20260509204501 70 95 3.0 7.0 0.00 0.08 0.08 58 1006.3
20260509203957 69 249 0.0 7.0 0.00 0.08 0.08 58 1006.3
20260509203453 69 356 2.0 7.0 0.00 0.08 0.08 56 1006.4
20260509202951 68 5 5.0 7.0 0.00 0.08 0.08 60 1006.5
20260509202447 68 199 1.0 8.0 0.00 0.08 0.08 62 1006.4
20260509201942 68 197 3.0 7.0 0.00 0.08 0.08 61 1006.5
20260509201437 66 204 3.0 7.0 0.00 0.08 0.08 65 1006.8
20260509200935 68 280 3.0 6.0 0.00 0.08 0.08 63 1006.9
20260509200434 68 173 3.0 6.0 0.00 0.08 0.08 60 1006.5
20260509195931 69 296 2.0 7.0 0.00 0.08 0.08 61 1006.8
20260509195427 66 204 0.0 7.0 0.00 0.08 0.08 65 1007.0
20260509194926 67 203 4.0 7.0 0.00 0.08 0.08 64 1007.0
20260509194417 66 295 1.0 6.0 0.00 0.08 0.08 65 1007.3
20260509193914 66 202 6.0 8.0 0.00 0.08 0.08 63 1007.2
20260509193413 67 254 1.0 5.0 0.00 0.08 0.08 64 1007.1
20260509192909 66 192 2.0 5.0 0.00 0.08 0.08 66 1007.1
20260509192405 66 345 1.0 21.0 0.00 0.08 0.08 66 1007.0
20260509191901 66 347 2.0 6.0 0.00 0.08 0.08 69 1007.4
20260509191357 65 355 3.0 15.0 0.00 0.08 0.08 68 1007.2
20260509190853 63 181 0.0 8.0 0.00 0.08 0.08 71 1007.4
20260509190350 64 21 3.0 12.0 0.00 0.08 0.08 72 1007.3
20260509185848 64 230 0.0 5.0 0.00 0.08 0.08 71 1007.3
20260509185344 64 2 2.0 3.0 0.00 0.08 0.08 73 1007.4
20260509184841 64 183 3.0 6.0 0.00 0.08 0.08 72 1007.5
20260509184338 64 187 4.0 8.0 0.00 0.08 0.08 72 1007.7
20260509183835 64 221 3.0 11.0 0.00 0.08 0.08 71 1007.7
20260509183330 66 204 3.0 9.0 0.00 0.08 0.08 70 1007.7
20260509182826 64 232 2.0 9.0 0.00 0.08 0.08 75 1007.7
20260509182324 63 255 2.0 16.0 0.00 0.08 0.08 76 1007.6
20260509181821 61 189 4.0 9.0 0.00 0.08 0.08 76 1007.9
20260509181318 62 31 2.0 6.0 0.00 0.08 0.08 74 1007.7
20260509180815 63 173 4.0 8.0 0.00 0.08 0.08 73 1007.8
20260509180311 63 116 1.0 5.0 0.00 0.08 0.08 74 1007.7
20260509175808 63 166 0.0 4.0 0.00 0.08 0.08 74 1007.8
20260509175306 63 321 5.0 11.0 0.00 0.08 0.08 72 1007.5
20260509174800 62 193 4.0 6.0 0.00 0.08 0.08 75 1007.6
20260509174256 61 267 0.0 8.0 0.00 0.08 0.08 78 1007.7
20260509173752 61 174 3.0 6.0 0.00 0.08 0.08 79 1007.9
20260509173247 60 8 1.0 4.0 0.00 0.08 0.08 80 1007.9
20260509172743 59 195 3.0 7.0 0.00 0.08 0.08 80 1007.9
20260509172241 59 79 0.0 2.0 0.00 0.08 0.08 83 1007.7
20260509171736 59 287 1.0 7.0 0.00 0.08 0.08 82 1007.9
20260509171232 59 189 1.0 3.0 0.00 0.08 0.08 83 1007.7
20260509170729 59 197 2.0 9.0 0.00 0.08 0.08 82 1007.7
20260509170225 59 222 1.0 3.0 0.00 0.08 0.08 83 1007.5
20260509165724 59 171 2.0 6.0 0.00 0.08 0.08 81 1007.5
20260509165219 59 217 0.0 6.0 0.00 0.08 0.08 83 1007.7
20260509164715 59 262 0.0 4.0 0.00 0.08 0.08 85 1007.4
20260509164211 58 348 1.0 3.0 0.00 0.08 0.08 87 1007.6
20260509163709 58 0 0.0 4.0 0.00 0.08 0.08 86 1007.6
20260509163205 58 356 3.0 11.0 0.00 0.08 0.08 84 1007.5
20260509162703 59 196 2.0 4.0 0.00 0.08 0.08 85 1007.7
20260509162158 59 343 0.0 3.0 0.00 0.08 0.08 86 1007.4
20260509161654 59 167 2.0 7.0 0.00 0.08 0.08 85 1007.7
20260509161150 59 59 1.0 7.0 0.00 0.08 0.08 88 1007.6
20260509160645 58 320 3.0 4.0 0.00 0.08 0.08 90 1007.6
20260509160141 57 178 2.0 3.0 0.00 0.08 0.08 91 1007.6
20260509155637 57 198 3.0 6.0 0.00 0.08 0.08 92 1007.7
20260509155134 56 177 3.0 4.0 0.00 0.08 0.08 95 1007.5
20260509154630 55 15 0.0 5.0 0.00 0.08 0.08 95 1007.5
20260509154127 54 231 1.0 6.0 0.00 0.08 0.08 96 1007.7
20260509153624 54 203 0.0 3.0 0.00 0.08 0.08 97 1007.6
20260509153121 54 310 2.0 6.0 0.00 0.08 0.08 98 1007.7
20260509152616 54 215 1.0 3.0 0.00 0.08 0.08 99 1007.6
20260509152114 54 7 0.0 3.0 0.00 0.08 0.08 99 1007.5
20260509151610 54 12 0.0 2.0 0.02 0.08 0.08 99 1007.5
20260509151108 53 173 0.0 4.0 0.02 0.08 0.08 99 1007.7
20260509150605 52 205 0.0 4.0 0.00 0.08 0.08 99 1007.6
20260509150104 52 158 0.0 4.0 0.00 0.08 0.08 99 1007.5
20260509145559 52 13 2.0 4.0 0.00 0.08 0.08 99 1007.6
20260509145054 52 188 2.0 6.0 0.02 0.08 0.08 99 1007.8
20260509144552 52 142 0.0 4.0 0.00 0.07 0.07 99 1007.8
20260509144049 52 186 0.0 2.0 0.02 0.07 0.07 99 1007.8
20260509143546 52 29 0.0 3.0 0.02 0.07 0.07 99 1007.9
20260509143044 52 142 0.0 3.0 0.02 0.07 0.07 99 1007.8
20260509142539 52 83 0.0 3.0 0.05 0.07 0.07 99 1007.8
20260509142035 52 217 0.0 4.0 0.05 0.07 0.07 99 1007.6
20260509141526 52 181 0.0 6.0 0.02 0.06 0.06 99 1007.7
20260509141023 52 279 1.0 5.0 0.02 0.06 0.06 99 1007.5
20260509140519 51 66 0.0 7.0 0.00 0.06 0.06 99 1007.8
20260509140018 52 157 0.0 4.0 0.00 0.06 0.06 99 1007.7
20260509135514 52 186 4.0 5.0 0.00 0.06 0.06 99 1007.7
20260509135012 51 106 1.0 4.0 0.00 0.06 0.06 99 1007.7
20260509134509 51 185 1.0 5.0 0.00 0.06 0.06 99 1007.9
20260509134007 51 115 0.0 3.0 0.00 0.06 0.06 99 1008.0
20260509133503 51 189 3.0 6.0 0.00 0.06 0.06 99 1007.9
20260509133001 51 39 0.0 2.0 0.00 0.06 0.06 99 1007.8
20260509132459 51 183 1.0 6.0 0.00 0.06 0.06 99 1007.9
20260509131956 51 190 3.0 7.0 0.02 0.06 0.06 99 1007.9
20260509131453 51 17 0.0 3.0 0.02 0.06 0.06 99 1007.8
20260509130950 51 9 2.0 5.0 0.00 0.05 0.05 99 1008.0
20260509130445 51 222 0.0 3.0 0.00 0.05 0.05 99 1008.0
20260509125943 51 132 2.0 3.0 0.02 0.05 0.05 99 1007.9
20260509125439 51 193 2.0 5.0 0.02 0.05 0.05 99 1007.9
20260509124935 51 46 0.0 4.0 0.02 0.05 0.05 99 1008.0
20260509124432 51 162 0.0 8.0 0.02 0.04 0.04 99 1008.0
20260509123929 51 176 3.0 8.0 0.02 0.04 0.04 99 1008.0
20260509123427 51 176 2.0 6.0 0.02 0.04 0.04 99 1008.2
20260509122922 51 30 0.0 2.0 0.02 0.04 0.04 99 1008.0
20260509122420 51 44 0.0 2.0 0.00 0.03 0.03 99 1008.0
20260509121916 51 49 1.0 3.0 0.00 0.03 0.03 99 1008.1
20260509121413 51 194 3.0 5.0 0.00 0.03 0.03 99 1007.9
20260509120911 51 265 0.0 3.0 0.00 0.03 0.03 99 1007.9
20260509120409 51 34 1.0 4.0 0.00 0.03 0.03 99 1008.1
20260509115907 50 15 2.0 2.0 0.02 0.03 0.03 99 1008.1
20260509115404 50 197 2.0 3.0 0.02 0.03 0.03 99 1008.0
20260509114901 50 184 3.0 4.0 0.02 0.03 0.03 99 1008.0
20260509114400 50 235 0.0 3.0 0.02 0.03 0.03 99 1008.0
20260509113859 50 355 2.0 2.0 0.02 0.02 0.02 99 1007.9
20260509113355 50 35 1.0 2.0 0.02 0.02 0.02 99 1008.2
20260509112852 50 169 0.0 7.0 0.00 0.02 0.02 99 1008.0
20260509112349 50 161 3.0 5.0 0.02 0.02 0.02 99 1008.0
20260509111847 50 142 0.0 3.0 0.02 0.02 0.02 99 1007.9
20260509111343 50 27 2.0 3.0 0.02 0.02 0.02 99 1007.8
20260509110842 50 331 0.0 2.0 0.00 0.01 0.01 99 1007.7
20260509110337 50 76 0.0 4.0 0.00 0.01 0.01 99 1007.8
20260509105836 50 8 1.0 2.0 0.00 0.01 0.01 99 1007.7
20260509105333 49 147 0.0 2.0 0.00 0.01 0.01 99 1007.8
20260509104829 49 273 1.0 1.0 0.00 0.01 0.01 99 1007.8
20260509104326 49 43 0.0 2.0 0.00 0.01 0.01 99 1007.8
20260509103824 49 329 0.0 1.0 0.00 0.01 0.01 99 1007.7
20260509103321 49 347 1.0 4.0 0.00 0.01 0.01 99 1007.6
20260509102820 49 336 0.0 4.0 0.00 0.01 0.01 99 1007.6
20260509102317 49 190 0.0 2.0 0.00 0.01 0.01 99 1007.7
20260509101812 49 34 0.0 2.0 0.00 0.01 0.01 99 1007.9
20260509101309 49 75 0.0 2.0 0.00 0.01 0.01 99 1007.7
20260509100807 49 9 0.0 3.0 0.00 0.01 0.01 99 1007.8
20260509100304 48 16 0.0 2.0 0.00 0.01 0.01 99 1007.8
20260509095800 48 68 0.0 2.0 0.00 0.01 0.01 99 1007.7
20260509095258 48 24 1.0 2.0 0.00 0.01 0.01 99 1008.0
20260509094755 48 124 0.0 1.0 0.00 0.01 0.01 99 1007.9
20260509094251 48 66 0.0 1.0 0.00 0.01 0.01 99 1007.9
20260509093749 48 66 0.0 2.0 0.00 0.01 0.01 99 1008.1
20260509093246 48 54 0.0 2.0 0.00 0.01 0.01 99 1008.1
20260509092744 48 89 0.0 2.0 0.00 0.01 0.01 99 1008.3
20260509092242 48 33 0.0 2.0 0.00 0.01 0.01 99 1008.0
20260509091740 48 149 0.0 2.0 0.00 0.01 0.01 99 1008.2
20260509091236 48 105 0.0 2.0 0.00 0.01 0.01 99 1008.1
20260509090734 48 51 1.0 2.0 0.00 0.01 0.01 99 1008.1
20260509090231 48 22 0.0 2.0 0.00 0.01 0.01 99 1008.0
20260509085728 48 44 0.0 1.0 0.00 0.01 0.01 99 1008.2
20260509085225 48 75 0.0 1.0 0.00 0.01 0.01 99 1008.4
20260509084722 48 113 0.0 1.0 0.00 0.01 0.01 99 1008.4
20260509084218 48 37 0.0 1.0 0.02 0.01 0.01 99 1008.3
20260509083717 48 110 0.0 1.0 0.02 0.01 0.01 99 1008.4
20260509083213 48 60 0.0 2.0 0.00 0.01 0.01 99 1008.4
20260509082710 48 49 0.0 2.0 0.00 0.01 0.01 99 1008.4
20260509082206 48 69 0.0 0.0 0.00 0.01 0.01 99 1008.4
20260509081703 48 68 1.0 2.0 0.00 0.01 0.01 99 1008.5
20260509081200 48 49 0.0 1.0 0.02 0.01 0.01 99 1008.3
20260509080659 48 69 0.0 2.0 0.02 0.01 0.01 99 1008.1
20260509080156 48 142 0.0 1.0 0.00 0.00 0.00 99 1008.6
20260509075654 48 48 0.0 2.0 0.00 0.00 0.00 99 1008.6
20260509075151 48 140 1.0 2.0 0.00 0.00 0.00 99 1008.7
20260509074648 48 134 0.0 1.0 0.00 0.00 0.00 99 1008.5
20260509074145 48 115 0.0 1.0 0.00 0.00 0.00 99 1008.6
20260509073642 48 135 0.0 1.0 0.00 0.00 0.00 99 1008.5
20260509073138 48 37 0.0 1.0 0.00 0.00 0.00 99 1008.4
20260509072635 48 135 0.0 2.0 0.00 0.00 0.00 99 1008.6
20260509072132 48 205 0.0 2.0 0.02 0.00 0.00 99 1008.6
20260509071628 48 102 0.0 3.0 0.02 0.00 0.00 99 1008.7
20260509071126 48 51 0.0 2.0 0.00 0.00 0.00 99 1008.7
20260509070623 48 96 0.0 2.0 0.00 0.00 0.00 99 1008.5
20260509070119 48 44 0.0 2.0 0.00 0.00 0.00 99 1008.4
20260509065614 48 348 1.0 2.0 0.00 0.00 0.00 99 1008.4
20260509065111 48 66 0.0 2.0 0.00 0.00 0.00 99 1008.5
20260509064608 48 19 2.0 2.0 0.00 0.00 0.00 99 1008.6
20260509064107 48 25 0.0 2.0 0.00 0.00 0.00 99 1008.4
20260509063603 48 75 0.0 1.0 0.00 0.00 0.00 99 1008.4
20260509063059 48 74 0.0 1.0 0.00 0.00 0.00 99 1008.5
20260509062556 48 103 0.0 2.0 0.00 0.00 0.00 99 1008.8
20260509062054 48 189 2.0 3.0 0.00 0.00 0.00 99 1008.8
20260509061550 48 54 1.0 2.0 0.00 0.00 0.00 99 1008.8
20260509061048 48 55 0.0 2.0 0.00 0.00 0.00 99 1008.5
20260509060545 48 104 0.0 2.0 0.00 0.00 0.00 99 1009.1
20260509060041 48 155 1.0 2.0 0.00 0.00 0.00 99 1009.0
20260509055536 48 284 0.0 2.0 0.00 0.00 0.00 99 1009.0
20260509055033 48 61 0.0 1.0 0.00 0.00 0.00 99 1009.0
20260509054529 48 44 0.0 0.0 0.00 0.00 0.00 99 1009.3
20260509054027 48 99 0.0 1.0 0.00 0.00 0.00 99 1009.1
20260509053525 48 30 0.0 2.0 0.00 0.00 0.00 99 1009.3
20260509053016 48 66 0.0 2.0 0.00 0.00 0.00 99 1009.5
20260509052514 48 161 1.0 2.0 0.00 0.00 0.00 99 1009.4
20260509052012 48 63 0.0 1.0 0.00 0.00 0.00 99 1009.5
20260509051510 48 164 0.0 1.0 0.00 0.00 0.00 99 1009.7
20260509051007 48 75 0.0 0.0 0.00 0.00 0.00 99 1009.5
20260509050503 48 89 0.0 0.0 0.00 0.00 0.00 99 1009.5
20260509050000 48 0 0.0 1.0 0.00 0.00 0.00 99 1009.9
20260509045457 48 113 0.0 1.0 0.00 0.00 0.00 99 1009.7
20260509044954 48 5 0.0 1.0 0.00 0.00 0.00 99 1009.7
20260509044452 48 36 0.0 1.0 0.00 0.00 0.00 99 1009.7
20260509043949 49 30 0.0 1.0 0.00 0.00 0.00 99 1009.5
20260509043444 49 50 0.0 1.0 0.00 0.00 0.00 99 1009.7
20260509042940 49 104 0.0 1.0 0.00 0.00 0.00 99 1009.9
20260509042437 49 195 0.0 1.0 0.00 0.00 0.00 99 1010.0
20260509041933 49 138 0.0 1.0 0.00 0.00 0.00 99 1010.1
20260509041430 49 354 0.0 0.0 0.00 0.00 0.00 99 1010.1
20260509040928 49 354 0.0 0.0 0.00 0.00 0.00 99 1010.3
20260509040426 49 75 0.0 0.0 0.00 0.00 0.00 99 1010.4
20260509035922 49 75 0.0 0.0 0.00 0.06 0.06 99 1010.2
20260509035420 49 75 0.0 0.0 0.02 0.06 0.06 99 1010.6
20260509034916 49 75 0.0 0.0 0.00 0.06 0.06 99 1010.6
20260509034414 49 75 0.0 0.0 0.00 0.06 0.06 99 1010.7
20260509033911 49 195 0.0 2.0 0.00 0.06 0.06 99 1010.6
20260509033408 49 25 0.0 2.0 0.00 0.06 0.06 99 1010.7
20260509032904 49 178 0.0 2.0 0.00 0.06 0.06 99 1011.0
20260509032402 49 352 0.0 1.0 0.02 0.06 0.06 98 1010.8
20260509031900 49 62 0.0 0.0 0.02 0.06 0.06 98 1010.8
20260509031356 49 13 0.0 1.0 0.00 0.06 0.06 98 1010.9
20260509030854 49 104 0.0 0.0 0.00 0.06 0.06 98 1011.1
20260509030352 49 89 0.0 1.0 0.00 0.06 0.06 98 1011.1
20260509025849 49 55 0.0 0.0 0.02 0.06 0.06 98 1011.1
20260509025344 49 55 0.0 1.0 0.00 0.05 0.05 97 1011.1
20260509024839 50 124 0.0 1.0 0.02 0.05 0.05 97 1011.4
20260509024330 50 142 0.0 0.0 0.02 0.05 0.05 97 1011.4
20260509023827 50 129 0.0 0.0 0.02 0.05 0.05 97 1011.5
20260509023325 50 119 0.0 1.0 0.05 0.05 0.05 97 1011.4
20260509022821 50 15 0.0 0.0 0.05 0.04 0.04 96 1011.7